{"data":{"norad_id":40961,"intl_designator":"2015-057D","name":"JILIN-1","alt_names":[],"object_type":"PAYLOAD","status":"ACTIVE","operator":null,"country":"PRC","launch_date":"2015-10-07","launch_site_code":"JSC","launch_vehicle":null,"mission":null,"orbit_class":"UNKNOWN","rcs_meters":2.2889,"size_class":null,"mass_kg":null,"dimensions":null,"purposes":[],"wikipedia_slug":null,"has_3d_model":false,"image_url":null,"decayed_at":null,"tle_current":{"epoch":"2026-05-25T04:48:33.042816Z","epoch_age_seconds":58568,"freshness":"FRESH","line1":"1 40961U 15057D   26145.20038244  .00000740  00000+0  10883-3 0  9992","line2":"2 40961  97.6508 145.7098 0016465 343.8100  16.2583 14.78115200572213","mean_motion":14.781152,"eccentricity":0.0016465,"inclination_deg":97.6508,"raan_deg":145.7098,"arg_perigee_deg":343.81,"mean_anomaly_deg":16.2583,"bstar":0.00010883,"rev_number":57221,"period_min":97.421364721775,"perigee_km":623.73226256215,"apogee_km":646.82744426044,"semimajor_km":7013.4168534113,"source":"CELESTRAK","updated_at":"2026-05-25T13:37:55.556510Z"}}}